This is the latest recevied weather packets stored in our database for station/object PD2BVG. If no packets are shown the sender has not sent any weather packets the latest 1 day(s).
| Time | Temp. | Humidity | Pressure | Rain* | Wind** | Luminosity | Snow |
|---|---|---|---|---|---|---|---|
| 1778059654 | 12.78° C | 78% | 1010.4 hPa | 0 mm | - | 304 W/m² | - |
| 1778059593 | 12.78° C | 78% | 1010.3 hPa | 0 mm | - | 303 W/m² | - |
| 1778059534 | 12.78° C | 80% | 1010.4 hPa | 0 mm | - | 318 W/m² | - |
| 1778059474 | 12.78° C | 81% | 1010.4 hPa | 0 mm | - | 572 W/m² | - |
| 1778059353 | 12.78° C | 81% | 1010.4 hPa | 0 mm | - | 586 W/m² | - |
| 1778059233 | 12.22° C | 81% | 1010.4 hPa | 0 mm | - | 357 W/m² | - |
| 1778059176 | 12.22° C | 81% | 1010.4 hPa | 0 mm | - | 364 W/m² | - |
| 1778059055 | 12.22° C | 80% | 1010.3 hPa | 0 mm | - | 456 W/m² | - |
| 1778058960 | 12.22° C | 80% | 1010.4 hPa | 0 mm | - | 315 W/m² | - |
| 1778058694 | 12.22° C | 81% | 1010.2 hPa | 0 mm | - | 267 W/m² | - |
| 1778058633 | 12.22° C | 81% | 1010.3 hPa | 0 mm | - | 401 W/m² | - |
| 1778058574 | 12.22° C | 82% | 1010.3 hPa | 0 mm | - | 313 W/m² | - |
| 1778058514 | 12.22° C | 82% | 1010.3 hPa | 0 mm | - | 313 W/m² | - |
| 1778058453 | 12.22° C | 81% | 1010.3 hPa | 0 mm | - | 382 W/m² | - |
| 1778058213 | 12.22° C | 81% | 1010.2 hPa | 0 mm | - | 176 W/m² | - |
| 1778058154 | 12.22° C | 82% | 1010.3 hPa | 0 mm | - | 206 W/m² | - |
| 1778058094 | 12.22° C | 81% | 1010.3 hPa | 0 mm | - | 194 W/m² | - |
| 1778058034 | 12.22° C | 81% | 1010.3 hPa | 0 mm | - | 176 W/m² | - |
| 1778057855 | 12.22° C | 81% | 1010.3 hPa | 0 mm | - | 225 W/m² | - |
| 1778057675 | 12.22° C | 81% | 1010.2 hPa | 0 mm | - | 176 W/m² | - |
| 1778057613 | 12.22° C | 81% | 1010.2 hPa | 0 mm | - | 192 W/m² | - |
| 1778057554 | 12.22° C | 81% | 1010.2 hPa | 0 mm | - | 192 W/m² | - |
| 1778057493 | 12.22° C | 82% | 1010.2 hPa | 0 mm | - | 211 W/m² | - |
| 1778057133 | 12.22° C | 81% | 1010.1 hPa | 0 mm | - | 211 W/m² | - |
| 1778057013 | 12.22° C | 83% | 1010.1 hPa | 0 mm | - | 201 W/m² | - |
* Rain latest hour (hover to see other rain measurements)
** Current wind speed in m/s (hover to see current wind gust speed)